Time,TemperatureF,DewpointF,PressureIn,WindDirection,WindDirectionDegrees,WindSpeedMPH,WindSpeedGustMPH,Humidity,HourlyPrecipIn,Conditions,Clouds,dailyrainin,SolarRadiationWatts/m^2,SoftwareType,DateUTC
2013-02-16 00:01:00,23.0,13.0,-100.00,WNW,282,7.0,17.0,65,0.00,,,0.00,0.000000,,2013-02-16 05:01:00,
2013-02-16 00:32:00,23.0,13.0,-100.00,WNW,282,7.0,17.0,65,0.00,,,0.00,0.000000,,2013-02-16 05:32:00,
2013-02-16 00:42:00,23.0,13.0,-100.00,WNW,282,7.0,17.0,65,0.00,,,0.00,0.000000,,2013-02-16 05:42:00,
2013-02-16 00:52:00,23.0,13.0,-100.00,WNW,282,7.0,17.0,65,0.00,,,0.00,0.000000,,2013-02-16 05:52:00,
2013-02-16 01:01:00,22.0,13.0,-100.00,West,272,7.0,18.0,68,0.00,,,0.00,0.000000,,2013-02-16 06:01:00,
2013-02-16 01:22:00,22.0,13.0,-100.00,West,272,7.0,18.0,68,0.00,,,0.00,0.000000,,2013-02-16 06:22:00,
2013-02-16 01:32:00,22.0,13.0,-100.00,West,272,7.0,18.0,68,0.00,,,0.00,0.000000,,2013-02-16 06:32:00,
2013-02-16 01:42:00,22.0,13.0,-100.00,West,272,7.0,18.0,68,0.00,,,0.00,0.000000,,2013-02-16 06:42:00,
2013-02-16 01:52:00,22.0,13.0,-100.00,West,272,7.0,18.0,68,0.00,,,0.00,0.000000,,2013-02-16 06:52:00,
2013-02-16 02:01:00,21.0,12.0,-100.00,WSW,247,2.0,11.0,67,0.00,,,0.00,0.000000,,2013-02-16 07:01:00,
2013-02-16 02:32:00,21.0,12.0,-100.00,WSW,247,2.0,11.0,67,0.00,,,0.00,0.000000,,2013-02-16 07:32:00,
2013-02-16 02:42:00,21.0,12.0,-100.00,WSW,247,2.0,11.0,67,0.00,,,0.00,0.000000,,2013-02-16 07:42:00,
2013-02-16 02:53:00,21.0,12.0,-100.00,WSW,247,2.0,11.0,67,0.00,,,0.00,0.000000,,2013-02-16 07:53:00,
2013-02-16 03:01:00,20.0,11.0,-100.00,WNW,284,4.0,9.0,68,0.00,,,0.00,0.000000,,2013-02-16 08:01:00,
2013-02-16 03:32:00,20.0,11.0,-100.00,WNW,284,4.0,9.0,68,0.00,,,0.00,0.000000,,2013-02-16 08:32:00,
2013-02-16 03:42:00,20.0,11.0,-100.00,WNW,284,4.0,9.0,68,0.00,,,0.00,0.000000,,2013-02-16 08:42:00,
2013-02-16 03:52:00,20.0,11.0,-100.00,WNW,284,4.0,9.0,68,0.00,,,0.00,0.000000,,2013-02-16 08:52:00,
2013-02-16 05:01:00,18.0,12.0,-100.00,WNW,287,5.0,9.0,77,-99.99,,,0.00,0.000000,,2013-02-16 10:01:00,
2013-02-16 05:32:00,18.0,12.0,-100.00,WNW,287,5.0,9.0,77,-99.99,,,0.00,0.000000,,2013-02-16 10:32:00,
2013-02-16 05:42:00,18.0,12.0,-100.00,WNW,287,5.0,9.0,77,-99.99,,,0.00,0.000000,,2013-02-16 10:42:00,
2013-02-16 05:52:00,18.0,12.0,-100.00,WNW,287,5.0,9.0,77,-99.99,,,0.00,0.000000,,2013-02-16 10:52:00,
2013-02-16 06:01:00,17.0,11.0,-100.00,WNW,282,5.0,9.0,76,0.00,,,0.00,0.000000,,2013-02-16 11:01:00,
2013-02-16 06:32:00,17.0,11.0,-100.00,WNW,282,5.0,9.0,76,0.00,,,0.00,0.000000,,2013-02-16 11:32:00,
2013-02-16 06:42:00,17.0,11.0,-100.00,WNW,282,5.0,9.0,76,0.00,,,0.00,0.000000,,2013-02-16 11:42:00,
2013-02-16 06:52:00,17.0,11.0,-100.00,WNW,282,5.0,9.0,76,0.00,,,0.00,0.000000,,2013-02-16 11:52:00,
2013-02-16 07:01:00,16.0,11.0,-100.00,West,265,1.0,8.0,79,0.00,,,0.00,0.000000,,2013-02-16 12:01:00,
2013-02-16 07:22:00,16.0,11.0,-100.00,West,265,1.0,8.0,79,0.00,,,0.00,0.000000,,2013-02-16 12:22:00,
2013-02-16 07:32:00,16.0,11.0,-100.00,West,265,1.0,8.0,79,0.00,,,0.00,0.000000,,2013-02-16 12:32:00,
2013-02-16 07:42:00,16.0,11.0,-100.00,West,265,1.0,8.0,79,0.00,,,0.00,0.000000,,2013-02-16 12:42:00,
2013-02-16 07:52:00,16.0,11.0,-100.00,West,265,1.0,8.0,79,0.00,,,0.00,0.000000,,2013-02-16 12:52:00,
2013-02-16 09:01:00,17.0,10.0,-100.00,WNW,301,6.0,13.0,73,-99.99,,,0.00,131.000000,,2013-02-16 14:01:00,
2013-02-16 09:32:00,17.0,10.0,-100.00,WNW,301,6.0,13.0,73,-99.99,,,0.00,131.000000,,2013-02-16 14:32:00,
2013-02-16 09:42:00,17.0,10.0,-100.00,WNW,301,6.0,13.0,73,-99.99,,,0.00,131.000000,,2013-02-16 14:42:00,
2013-02-16 09:52:00,17.0,10.0,-100.00,WNW,301,6.0,13.0,73,-99.99,,,0.00,131.000000,,2013-02-16 14:52:00,
2013-02-16 10:01:00,20.0,11.0,-100.00,NW,317,4.0,9.0,66,0.00,,,0.00,300.000000,,2013-02-16 15:01:00,
2013-02-16 10:22:00,20.0,11.0,-100.00,NW,317,4.0,9.0,66,0.00,,,0.00,300.000000,,2013-02-16 15:22:00,
2013-02-16 10:32:00,20.0,11.0,-100.00,NW,317,4.0,9.0,66,0.00,,,0.00,300.000000,,2013-02-16 15:32:00,
2013-02-16 10:42:00,20.0,11.0,-100.00,NW,317,4.0,9.0,66,0.00,,,0.00,300.000000,,2013-02-16 15:42:00,
2013-02-16 10:52:00,20.0,11.0,-100.00,NW,317,4.0,9.0,66,0.00,,,0.00,300.000000,,2013-02-16 15:52:00,
2013-02-16 11:01:00,20.0,9.0,-100.00,NW,318,3.0,11.0,62,0.00,,,0.00,285.000000,,2013-02-16 16:01:00,
2013-02-16 11:32:00,20.0,9.0,-100.00,NW,318,3.0,11.0,62,0.00,,,0.00,285.000000,,2013-02-16 16:32:00,
2013-02-16 11:42:00,20.0,9.0,-100.00,NW,318,3.0,11.0,62,0.00,,,0.00,285.000000,,2013-02-16 16:42:00,
2013-02-16 11:52:00,20.0,9.0,-100.00,NW,318,3.0,11.0,62,0.00,,,0.00,285.000000,,2013-02-16 16:52:00,
2013-02-16 12:01:00,24.0,7.0,-100.00,NNW,329,5.0,9.0,48,0.00,,,0.00,468.000000,,2013-02-16 17:01:00,
2013-02-16 12:22:00,24.0,7.0,-100.00,NNW,329,5.0,9.0,48,0.00,,,0.00,468.000000,,2013-02-16 17:22:00,
2013-02-16 12:32:00,24.0,7.0,-100.00,NNW,329,5.0,9.0,48,0.00,,,0.00,468.000000,,2013-02-16 17:32:00,
2013-02-16 12:42:00,24.0,7.0,-100.00,NNW,329,5.0,9.0,48,0.00,,,0.00,468.000000,,2013-02-16 17:42:00,
2013-02-16 12:52:00,24.0,7.0,-100.00,NNW,329,5.0,9.0,48,0.00,,,0.00,468.000000,,2013-02-16 17:52:00,
2013-02-16 13:01:00,25.0,5.0,-100.00,NNW,327,5.0,10.0,42,0.00,,,0.00,557.000000,,2013-02-16 18:01:00,
2013-02-16 13:33:00,25.0,5.0,-100.00,NNW,327,5.0,10.0,42,0.00,,,0.00,557.000000,,2013-02-16 18:33:00,
2013-02-16 13:42:00,25.0,5.0,-100.00,NNW,327,5.0,10.0,42,0.00,,,0.00,557.000000,,2013-02-16 18:42:00,
2013-02-16 13:52:00,25.0,5.0,-100.00,NNW,327,5.0,10.0,42,0.00,,,0.00,557.000000,,2013-02-16 18:52:00,
2013-02-16 14:01:00,25.0,4.0,-100.00,WNW,294,5.0,10.0,40,0.00,,,0.00,418.000000,,2013-02-16 19:01:00,
2013-02-16 14:32:00,25.0,4.0,-100.00,WNW,294,5.0,10.0,40,0.00,,,0.00,418.000000,,2013-02-16 19:32:00,
2013-02-16 14:42:00,25.0,4.0,-100.00,WNW,294,5.0,10.0,40,0.00,,,0.00,418.000000,,2013-02-16 19:42:00,
2013-02-16 14:52:00,25.0,4.0,-100.00,WNW,294,5.0,10.0,40,0.00,,,0.00,418.000000,,2013-02-16 19:52:00,
2013-02-16 15:01:00,22.0,3.0,-100.00,WNW,286,6.0,11.0,44,0.00,,,0.00,311.000000,,2013-02-16 20:01:00,
2013-02-16 15:32:00,22.0,3.0,-100.00,WNW,286,6.0,11.0,44,0.00,,,0.00,311.000000,,2013-02-16 20:32:00,
2013-02-16 15:42:00,22.0,3.0,-100.00,WNW,286,6.0,11.0,44,0.00,,,0.00,311.000000,,2013-02-16 20:42:00,
2013-02-16 15:52:00,22.0,3.0,-100.00,WNW,286,6.0,11.0,44,0.00,,,0.00,311.000000,,2013-02-16 20:52:00,
2013-02-16 16:01:00,22.0,3.0,-100.00,NW,322,2.0,8.0,43,0.00,,,0.00,116.000000,,2013-02-16 21:01:00,
2013-02-16 16:32:00,22.0,3.0,-100.00,NW,322,2.0,8.0,43,0.00,,,0.00,116.000000,,2013-02-16 21:32:00,
2013-02-16 16:42:00,22.0,3.0,-100.00,NW,322,2.0,8.0,43,0.00,,,0.00,116.000000,,2013-02-16 21:42:00,
2013-02-16 16:52:00,22.0,3.0,-100.00,NW,322,2.0,8.0,43,0.00,,,0.00,116.000000,,2013-02-16 21:52:00,
2013-02-16 17:01:00,20.0,2.0,-100.00,WNW,300,5.0,11.0,44,0.00,,,0.00,69.000000,,2013-02-16 22:01:00,
2013-02-16 17:32:00,20.0,2.0,-100.00,WNW,300,5.0,11.0,44,0.00,,,0.00,69.000000,,2013-02-16 22:32:00,
2013-02-16 17:42:00,20.0,2.0,-100.00,WNW,300,5.0,11.0,44,0.00,,,0.00,69.000000,,2013-02-16 22:42:00,
2013-02-16 17:52:00,20.0,2.0,-100.00,WNW,300,5.0,11.0,44,0.00,,,0.00,69.000000,,2013-02-16 22:52:00,
2013-02-16 18:01:00,16.0,5.0,-100.00,ENE,65,5.0,9.0,60,0.00,,,0.00,13.000000,,2013-02-16 23:01:00,
2013-02-16 18:32:00,16.0,5.0,-100.00,ENE,65,5.0,9.0,60,0.00,,,0.00,13.000000,,2013-02-16 23:32:00,
2013-02-16 18:42:00,16.0,5.0,-100.00,ENE,65,5.0,9.0,60,0.00,,,0.00,13.000000,,2013-02-16 23:42:00,
2013-02-16 18:52:00,16.0,5.0,-100.00,ENE,65,5.0,9.0,60,0.00,,,0.00,13.000000,,2013-02-16 23:52:00,
2013-02-16 19:01:00,14.0,4.0,-100.00,ENE,74,4.0,9.0,64,0.00,,,0.00,0.000000,,2013-02-17 00:01:00,
2013-02-16 19:22:00,14.0,4.0,-100.00,ENE,74,4.0,9.0,64,0.00,,,0.00,0.000000,,2013-02-17 00:22:00,
2013-02-16 19:32:00,14.0,4.0,-100.00,ENE,74,4.0,9.0,64,0.00,,,0.00,0.000000,,2013-02-17 00:32:00,
2013-02-16 19:42:00,14.0,4.0,-100.00,ENE,74,4.0,9.0,64,0.00,,,0.00,0.000000,,2013-02-17 00:42:00,
2013-02-16 19:52:00,14.0,4.0,-100.00,ENE,74,4.0,9.0,64,0.00,,,0.00,0.000000,,2013-02-17 00:52:00,
2013-02-16 20:01:00,11.0,3.0,-100.00,NE,42,0.0,6.0,69,0.00,,,0.00,0.000000,,2013-02-17 01:01:00,
2013-02-16 20:32:00,11.0,3.0,-100.00,NE,42,0.0,6.0,69,0.00,,,0.00,0.000000,,2013-02-17 01:32:00,
2013-02-16 20:42:00,11.0,3.0,-100.00,NE,42,0.0,6.0,69,0.00,,,0.00,0.000000,,2013-02-17 01:42:00,
2013-02-16 20:52:00,11.0,3.0,-100.00,NE,42,0.0,6.0,69,0.00,,,0.00,0.000000,,2013-02-17 01:52:00,
2013-02-16 21:01:00,9.0,2.0,-100.00,East,85,0.0,2.0,74,0.00,,,0.00,0.000000,,2013-02-17 02:01:00,
2013-02-16 21:32:00,9.0,2.0,-100.00,East,85,0.0,2.0,74,0.00,,,0.00,0.000000,,2013-02-17 02:32:00,
2013-02-16 21:42:00,9.0,2.0,-100.00,East,85,0.0,2.0,74,0.00,,,0.00,0.000000,,2013-02-17 02:42:00,
2013-02-16 21:52:00,9.0,2.0,-100.00,East,85,0.0,2.0,74,0.00,,,0.00,0.000000,,2013-02-17 02:52:00,
2013-02-16 22:01:00,11.0,-5.0,-100.00,WNW,284,4.0,10.0,48,0.00,,,0.00,0.000000,,2013-02-17 03:01:00,
2013-02-16 22:21:00,11.0,-5.0,-100.00,WNW,284,4.0,10.0,48,0.00,,,0.00,0.000000,,2013-02-17 03:21:00,
2013-02-16 22:32:00,11.0,-5.0,-100.00,WNW,284,4.0,10.0,48,0.00,,,0.00,0.000000,,2013-02-17 03:32:00,
2013-02-16 22:42:00,11.0,-5.0,-100.00,WNW,284,4.0,10.0,48,0.00,,,0.00,0.000000,,2013-02-17 03:42:00,
2013-02-16 22:52:00,11.0,-5.0,-100.00,WNW,284,4.0,10.0,48,0.00,,,0.00,0.000000,,2013-02-17 03:52:00,
2013-02-16 23:01:00,10.0,-3.0,-100.00,West,273,0.0,10.0,56,0.00,,,0.00,0.000000,,2013-02-17 04:01:00,
2013-02-16 23:32:00,10.0,-3.0,-100.00,West,273,0.0,10.0,56,0.00,,,0.00,0.000000,,2013-02-17 04:32:00,
2013-02-16 23:42:00,10.0,-3.0,-100.00,West,273,0.0,10.0,56,0.00,,,0.00,0.000000,,2013-02-17 04:42:00,
2013-02-16 23:52:00,10.0,-3.0,-100.00,West,273,0.0,10.0,56,0.00,,,0.00,0.000000,,2013-02-17 04:52:00,